Location: La Trinit�
(48.1620°N, 3.4512°W)
Time: 14:54:34
(UTC+00:00)

SJ 16-02 - Pass Details

Date: 08 May 2021
Orbit: 606 x 616 km, 75.0° (Epoch: 24 June)

Event Time Altitude Azimuth Distance (km) Brightness Sun altitude
Exits shadow 22:15:45 48° 167° (SSE) 814 1.5 -19.7°
Maximum altitude 22:16:48 66° 108° (ESE) 677 1.3 -19.8°
Drops below altitude 10° 22:21:13 10° 26° (NNE) 1,989 4.4 -20.1°
Sets 22:23:29 0° 24° (NNE) 2,899 5.4 -20.3°
